Retour au catalogue

STARLINK-11577

ActifCommunicationsVLEO
NORAD 63013·PAYLOAD·🇺🇸 United States

Lancé Feb 15, 2025 depuis Cape Canaveral Space Force Station

Loading…

Prochains Passages (prochaines 24 heures)

TLE

FraisSource: CelesTrak SupGP

Époque: Sep 14, 2026, 22:43 UTC

1 63013C 25032J   26257.94701389 -.00042775  00000+0 -33229-3 0  2573
2 63013  43.0001 134.6427 0001531 259.6714 262.7314 15.70855307    11

Suivez STARLINK-11577 en temps réel avec AllMySat

Download on the App Store